Flag for U.S.A. Weather past 2 weeks in Cocoa Beach, Florida, U.S.A.

Now
49 °F

Clear.


Feels Like: 43 °F
Forecast: 47 / 63 °F
Wind: 17 mph from Northwest

Location: Cocoa / Patrick Air Force Base

Current Time: Jan 25, 2015 at 7:57:16 AM

Latest Report: Jan 25, 2015 at 6:58 AM


Visibility: 10 mi

Pressure: 30.08 "Hg

Humidity: 67%

Dew point: 39 °F

Location of Cocoa BeachLocation

Historic Weather in Cocoa Beach — Graph

°F

Cocoa Beach temperature yesterday

Maximum temperature yesterday: 72 °F (at 8:03 AM)
Minimum temperature yesterday: 51 °F (at 11:58 PM)
Average temperature yesterday: 65 °F

Past Weeks' High & Low Weather Summary

 TemperatureHumidityPressure
High76 °F (Jan 11, 1:58 PM)100% (Jan 12, 6:03 PM)30.39 "Hg (Jan 12, 6:03 PM)
Low49 °F (Jan 25, 5:58 AM)43% (Jan 19, 11:58 AM)29.82 "Hg (Jan 24, 8:03 AM)
Average64 °F85%30.13 "Hg
* Reported Jan 10 6:58 AM — Jan 25 6:58 AM, Cocoa Beach, Weather by CustomWeather, © 2014

Note: Actual official high and low records may vary slightly from our data, if they occured in-between our weather recording intervals... More about our weather records

Advertising

Cocoa Beach weather history for previous 24 hours

 ConditionsComfort  
Time TempWeatherWind HumidityBarometerVisibility
6:58 AM
Jan 25
49 °FClear.17 mph67%30.08 "Hg10 mi
5:58 AM49 °FClear.15 mph76%30.06 "Hg10 mi
4:58 AM49 °FClear.16 mph79%30.04 "Hg10 mi
3:58 AM49 °FClear.16 mph81%30.04 "Hg10 mi
2:58 AM50 °FClear.14 mph83%30.04 "Hg10 mi
1:58 AM50 °FClear.12 mph85%30.04 "Hg10 mi
12:58 AM50 °FClear.15 mph85%30.04 "Hg10 mi
11:58 PM
Jan 24
51 °FClear.14 mph85%30.03 "Hg10 mi
10:58 PM52 °FClear.16 mph85%30.03 "Hg10 mi
9:58 PM54 °FClear.18 mph81%30.02 "Hg10 mi
8:58 PM55 °FClear.15 mph78%30.00 "Hg10 mi
7:58 PM56 °FClear.17 mph74%29.98 "Hg10 mi
6:58 PM59 °FClear.16 mph71%29.97 "Hg10 mi
5:58 PM61 °FClear.18 mph66%29.94 "Hg10 mi
4:58 PM64 °FSunny.20 mph61%29.92 "Hg10 mi
3:58 PM67 °FSunny.22 mph57%29.91 "Hg10 mi
2:58 PM69 °FSunny.21 mph55%29.89 "Hg10 mi
1:58 PM69 °FSunny.24 mph57%29.89 "Hg10 mi
12:58 PM66 °FSunny.30 mph63%29.90 "Hg10 mi
11:58 AM64 °FScattered clouds.24 mph75%29.92 "Hg10 mi
11:03 AM66 °FPartly sunny.26 mph78%29.92 "Hg10 mi
10:58 AM65 °FScattered clouds.23 mph83%29.93 "Hg10 mi
9:58 AM65 °FBroken clouds.24 mph89%29.91 "Hg10 mi
9:03 AM66 °FPartly sunny.22 mph94%29.88 "Hg10 mi
8:03 AM72 °FPassing clouds.16 mph94%29.82 "Hg10 mi
Weather by CustomWeather, © 2014

See weather overviewHow to use our weather pages